When you browse on this site, cookies collect data to enhance your experience and personalize the content and advertising you see.
Visit our Privacy Policy to learn more. By continuing to use the site, you agree to this use of cookies and data.

Hourly Weather Eger

Today, 8 July, Wednesday

Time Temperature Precipitation Wind Pressure Humidity
00:00 +13°C° 0 mm 1 mps 746 mmHg 88%
01:00 +12°C° 0 mm 0 mps 746 mmHg 87%
02:00 +12°C° 0 mm 0 mps 746 mmHg 88%
03:00 +12°C° 0 mm 0 mps 746 mmHg 88%
04:00 +11°C° 0 mm 0 mps 746 mmHg 89%
05:00 +13°C° 0 mm 0 mps 746 mmHg 85%
06:00 +15°C° 0 mm 1 mps 746 mmHg 81%
07:00 +18°C° 0 mm 1 mps 746 mmHg 77%
08:00 +18°C° 0 mm 2 mps 747 mmHg 72%
09:00 +19°C° 0 mm 2 mps 747 mmHg 66%
10:00 +21°C° 0 mm 2 mps 747 mmHg 61%
11:00 +21°C° 0 mm 3 mps 747 mmHg 58%
12:00 +22°C° 0 mm 3 mps 746 mmHg 55%
13:00 +24°C° 0 mm 3 mps 746 mmHg 53%
14:00 +24°C° 0 mm 3 mps 746 mmHg 53%
15:00 +24°C° 0 mm 3 mps 746 mmHg 54%
16:00 +24°C° 0 mm 3 mps 746 mmHg 54%
17:00 +23°C° 0 mm 2 mps 746 mmHg 60%
18:00 +20°C° 0 mm 2 mps 745 mmHg 66%
19:00 +19°C° 0 mm 2 mps 745 mmHg 73%
20:00 +18°C° 0 mm 2 mps 745 mmHg 73%
21:00 +17°C° 0 mm 2 mps 745 mmHg 73%
22:00 +16°C° 0 mm 2 mps 746 mmHg 74%
23:00 +16°C° 0 mm 2 mps 746 mmHg 74%

Tomorrow, 9 July, Thursday

Time Temperature Precipitation Wind Pressure Humidity
00:00 +16°C° 0 mm 2 mps 746 mmHg 74%
01:00 +16°C° 0 mm 2 mps 746 mmHg 74%
02:00 +16°C° 0 mm 2 mps 746 mmHg 73%
03:00 +16°C° 0 mm 2 mps 746 mmHg 71%
04:00 +16°C° 0 mm 2 mps 746 mmHg 70%
05:00 +17°C° 0 mm 2 mps 746 mmHg 71%
06:00 +18°C° 0 mm 2 mps 746 mmHg 72%
07:00 +19°C° 0 mm 2 mps 747 mmHg 73%
08:00 +21°C° 0 mm 3 mps 747 mmHg 70%
09:00 +22°C° 0 mm 3 mps 747 mmHg 66%
10:00 +24°C° 0 mm 3 mps 748 mmHg 63%
11:00 +25°C° 0.1 mm 3 mps 747 mmHg 62%
12:00 +25°C° 0.1 mm 3 mps 747 mmHg 61%
13:00 +26°C° 0.1 mm 3 mps 747 mmHg 60%
14:00 +26°C° 0 mm 3 mps 747 mmHg 60%
15:00 +26°C° 0 mm 3 mps 747 mmHg 60%
16:00 +27°C° 0 mm 4 mps 746 mmHg 59%
17:00 +25°C° 0 mm 3 mps 746 mmHg 66%
18:00 +24°C° 0 mm 2 mps 746 mmHg 72%
19:00 +23°C° 0 mm 1 mps 746 mmHg 79%
20:00 +22°C° 0 mm 1 mps 746 mmHg 80%
21:00 +21°C° 0 mm 1 mps 746 mmHg 81%
22:00 +18°C° 0 mm 0 mps 746 mmHg 82%
23:00 +18°C° 0 mm 0 mps 746 mmHg 84%

Day after tomorrow, 10 July, Friday

Time Temperature Precipitation Wind Pressure Humidity
00:00 +17°C° 0 mm 0 mps 746 mmHg 85%
01:00 +19°C° 0 mm 1 mps 746 mmHg 87%
02:00 +17°C° 0 mm 0 mps 746 mmHg 88%
03:00 +16°C° 0 mm 0 mps 746 mmHg 89%
04:00 +16°C° 0 mm 0 mps 746 mmHg 90%
05:00 +18°C° 0 mm 0 mps 746 mmHg 85%
06:00 +21°C° 0 mm 1 mps 746 mmHg 80%
07:00 +23°C° 0 mm 1 mps 746 mmHg 74%
08:00 +24°C° 0 mm 1 mps 746 mmHg 69%
09:00 +26°C° 0 mm 1 mps 746 mmHg 64%
10:00 +27°C° 0 mm 2 mps 746 mmHg 59%
11:00 +28°C° 0 mm 2 mps 746 mmHg 57%
12:00 +29°C° 0 mm 2 mps 745 mmHg 54%
13:00 +30°C° 0 mm 3 mps 745 mmHg 51%
14:00 +30°C° 0 mm 3 mps 745 mmHg 51%
15:00 +30°C° 0 mm 3 mps 745 mmHg 52%
16:00 +30°C° 0 mm 3 mps 744 mmHg 52%
17:00 +28°C° 0 mm 2 mps 744 mmHg 58%
18:00 +27°C° 0 mm 2 mps 744 mmHg 65%
19:00 +25°C° 0 mm 1 mps 744 mmHg 71%
20:00 +24°C° 0 mm 1 mps 744 mmHg 72%
21:00 +23°C° 0 mm 1 mps 744 mmHg 73%
22:00 +22°C° 0 mm 1 mps 743 mmHg 74%
23:00 +22°C° 0 mm 1 mps 743 mmHg 76%

11 July, Saturday

Time Temperature Precipitation Wind Pressure Humidity
00:00 +21°C° 0 mm 1 mps 744 mmHg 78%
01:00 +21°C° 0 mm 1 mps 744 mmHg 79%
02:00 +20°C° 0 mm 1 mps 743 mmHg 81%
03:00 +18°C° 0 mm 0 mps 743 mmHg 82%
04:00 +18°C° 0 mm 0 mps 743 mmHg 83%
05:00 +21°C° 0 mm 1 mps 743 mmHg 78%
06:00 +23°C° 0 mm 1 mps 743 mmHg 73%
07:00 +25°C° 0 mm 1 mps 743 mmHg 69%
08:00 +26°C° 0 mm 2 mps 743 mmHg 65%
09:00 +27°C° 0 mm 3 mps 743 mmHg 62%
10:00 +28°C° 0 mm 4 mps 743 mmHg 59%
11:00 +29°C° 0 mm 4 mps 743 mmHg 58%
12:00 +29°C° 0 mm 4 mps 743 mmHg 56%
13:00 +30°C° 0 mm 4 mps 743 mmHg 54%
14:00 +30°C° 0.5 mm 4 mps 743 mmHg 57%
15:00 +30°C° 0.5 mm 3 mps 742 mmHg 60%
16:00 +29°C° 0.5 mm 3 mps 742 mmHg 63%
17:00 +27°C° 1.3 mm 3 mps 743 mmHg 71%
18:00 +25°C° 1.3 mm 3 mps 743 mmHg 78%
19:00 +22°C° 1.3 mm 3 mps 743 mmHg 86%
20:00 +21°C° 2.3 mm 4 mps 743 mmHg 88%
21:00 +19°C° 2.3 mm 5 mps 744 mmHg 90%
22:00 +16°C° 2.3 mm 6 mps 744 mmHg 92%
23:00 +15°C° 1 mm 5 mps 744 mmHg 92%

12 July, Sunday

Time Temperature Precipitation Wind Pressure Humidity
00:00 +15°C° 1 mm 4 mps 745 mmHg 92%
01:00 +14°C° 1 mm 3 mps 745 mmHg 92%
02:00 +15°C° 0.1 mm 2 mps 745 mmHg 92%
03:00 +15°C° 0.1 mm 2 mps 745 mmHg 92%
04:00 +15°C° 0.1 mm 2 mps 746 mmHg 93%
05:00 +15°C° 0 mm 2 mps 746 mmHg 88%
06:00 +16°C° 0 mm 2 mps 747 mmHg 84%
07:00 +17°C° 0 mm 2 mps 748 mmHg 79%
08:00 +18°C° 0 mm 2 mps 748 mmHg 73%
09:00 +19°C° 0 mm 2 mps 748 mmHg 68%
10:00 +19°C° 0 mm 2 mps 748 mmHg 62%
11:00 +20°C° 0 mm 2 mps 748 mmHg 58%
12:00 +23°C° 0 mm 2 mps 748 mmHg 53%
13:00 +24°C° 0 mm 1 mps 748 mmHg 49%
14:00 +24°C° 0 mm 1 mps 748 mmHg 49%
15:00 +24°C° 0 mm 1 mps 748 mmHg 49%
16:00 +24°C° 0 mm 1 mps 748 mmHg 49%
17:00 +22°C° 0 mm 1 mps 748 mmHg 56%
18:00 +21°C° 0 mm 1 mps 748 mmHg 64%
19:00 +20°C° 0 mm 1 mps 748 mmHg 72%
20:00 +18°C° 0.1 mm 2 mps 748 mmHg 73%
21:00 +17°C° 0.1 mm 2 mps 749 mmHg 74%
22:00 +17°C° 0.1 mm 2 mps 749 mmHg 75%
23:00 +16°C° 0 mm 2 mps 749 mmHg 75%

13 July, Monday

Time Temperature Precipitation Wind Pressure Humidity
00:00 +16°C° 0 mm 2 mps 749 mmHg 75%
01:00 +16°C° 0 mm 2 mps 749 mmHg 75%
02:00 +15°C° 0 mm 2 mps 749 mmHg 75%
03:00 +15°C° 0 mm 2 mps 749 mmHg 75%
04:00 +15°C° 0 mm 2 mps 749 mmHg 75%
05:00 +15°C° 0 mm 2 mps 749 mmHg 73%
06:00 +16°C° 0 mm 2 mps 749 mmHg 71%
07:00 +16°C° 0 mm 2 mps 749 mmHg 70%
08:00 +18°C° 0 mm 2 mps 749 mmHg 65%
09:00 +19°C° 0 mm 2 mps 749 mmHg 60%
10:00 +21°C° 0 mm 2 mps 749 mmHg 55%
11:00 +21°C° 0 mm 2 mps 749 mmHg 54%
12:00 +23°C° 0 mm 1 mps 748 mmHg 53%
13:00 +23°C° 0 mm 1 mps 748 mmHg 52%
14:00 +23°C° 0 mm 1 mps 748 mmHg 52%
15:00 +23°C° 0 mm 1 mps 748 mmHg 52%
16:00 +23°C° 0 mm 1 mps 747 mmHg 52%
17:00 +22°C° 0 mm 1 mps 747 mmHg 59%
18:00 +21°C° 0 mm 1 mps 747 mmHg 65%
19:00 +19°C° 0 mm 1 mps 747 mmHg 72%
20:00 +18°C° 0 mm 1 mps 747 mmHg 74%
21:00 +16°C° 0 mm 1 mps 747 mmHg 75%
22:00 +15°C° 0 mm 1 mps 747 mmHg 77%
23:00 +15°C° 0 mm 1 mps 747 mmHg 77%
Show more